Weather in Arnhem

Netherlands     51°58′49″N   5°56′02″E
temp.,
°C
wind,
m/s
gust,
m/s
humid.,
%
clouds,
%
prec.,
mm/h
press.,
hPa
HPBL,
m
6 may, thu
thu623:00+3wsw358197 0.0 100995
02:00+4sw2483100 0.2 1008129
05:00+3ssw239894 2.4 1008307
08:00+4sw338898 2.4 1008458
11:00+8ssw3370100 0.0 10071026
14:00+10ssw3355100 0.3 10061496
17:00+9sw1362100 0.8 10041169
20:00+8w1277100 1.1 1004102
7 may, fri
fri723:00+5n119495 0.5 100628
02:00+2wnw229770 0.8 100724
05:00+1wnw249643 0.2 100872
08:00+4wnw368994 0.2 1011283
11:00+9wnw56555 0.1 10131638
14:00+12wnw674199 0.1 10142345
17:00+12wnw67415 0.0 10152095
20:00+9wnw47580 0.0 1017357
8 may, sat
sat823:00+4wnw22770 0.0 101822
02:00+2sw2286100 0.0 101812
05:00+2s238252 0.0 101831
08:00+5sse3573100 0.0 1017164
11:00+11sse5860100 0.0 1015734
14:00+14s6954100 0.0 10131650
17:00+10ssw51181100 0.5 1011648
20:00+10s71795100 4.1 1008685
9 may, sun
sun923:00+11s61692100 1.6 1007517
02:00+10s51595100 1.6 1006369
05:00+10s5139594 0.0 1005279
08:00+12sse51190100 0.0 1003252
11:00+17s6118199 0.6 1003454
14:00+20s61168100 0.6 10011231
17:00+23ssw61164100 0.0 9991483
20:00+19s5127799 0.5 999536
10 may, mon
mon1023:00+16ssw51394100 2.0 1001524
02:00+15ssw71490100 2.4 1001638
05:00+14s3897100 0.5 1001391
08:00+13sw5129195 4.1 1004763
11:00+15sw71074100 0.1 10061229
14:00+15sw7966100 0.2 10071403
17:00+16sw5762100 0.0 10071394
20:00+14sse1273100 0.0 100718